Time,TemperatureF,DewpointF,PressureIn,WindDirection,WindDirectionDegrees,WindSpeedMPH,WindSpeedGustMPH,Humidity,HourlyPrecipIn,Conditions,Clouds,dailyrainin,SoftwareType,DateUTC
2013-01-19 00:00:00,31.2,2.6,27.48,WSW,251,4.0,15.0,29,0.00,,,-99.99,Weather View 32 v60,2013-01-19 05:00:00,
2013-01-19 00:20:00,31.3,2.7,27.48,West,270,6.0,19.0,29,0.00,,,-99.99,Weather View 32 v60,2013-01-19 05:20:00,
2013-01-19 00:40:00,31.6,2.2,27.48,WSW,253,4.0,19.0,28,0.00,,,-99.99,Weather View 32 v60,2013-01-19 05:40:00,
2013-01-19 01:00:00,31.4,3.5,27.48,West,273,4.0,19.0,30,0.00,,,-99.99,Weather View 32 v60,2013-01-19 06:00:00,
2013-01-19 01:20:00,31.6,5.1,27.48,West,266,8.0,12.0,32,0.00,,,-99.99,Weather View 32 v60,2013-01-19 06:20:00,
2013-01-19 01:40:00,32.5,4.5,27.47,West,259,6.0,13.0,30,0.00,,,-99.99,Weather View 32 v60,2013-01-19 06:40:00,
2013-01-19 02:00:00,33.1,5.0,27.47,SW,223,8.0,14.0,30,0.00,,,-99.99,Weather View 32 v60,2013-01-19 07:00:00,
2013-01-19 02:20:00,33.6,4.7,27.47,SW,232,8.0,16.0,29,0.00,,,-99.99,Weather View 32 v60,2013-01-19 07:20:00,
2013-01-19 02:40:00,33.9,5.7,27.46,WSW,245,9.0,16.0,30,0.00,,,-99.99,Weather View 32 v60,2013-01-19 07:40:00,
2013-01-19 03:00:00,33.9,5.7,27.46,WSW,246,13.0,16.0,30,0.00,,,-99.99,Weather View 32 v60,2013-01-19 08:00:00,
2013-01-19 03:20:00,33.8,6.3,27.45,WSW,251,11.0,16.0,31,0.00,,,-99.99,Weather View 32 v60,2013-01-19 08:20:00,
2013-01-19 03:40:00,34.8,6.5,27.45,WSW,237,8.0,16.0,30,0.00,,,-99.99,Weather View 32 v60,2013-01-19 08:40:00,
2013-01-19 04:00:00,35.1,6.8,27.45,SW,234,7.0,17.0,30,0.00,,,-99.99,Weather View 32 v60,2013-01-19 09:00:00,
2013-01-19 04:20:00,36.1,6.1,27.45,WSW,247,7.0,20.0,28,0.00,,,-99.99,Weather View 32 v60,2013-01-19 09:20:00,
2013-01-19 04:40:00,36.4,7.1,27.45,WNW,287,17.0,22.0,29,0.00,,,-99.99,Weather View 32 v60,2013-01-19 09:40:00,
2013-01-19 05:00:00,36.7,7.4,27.44,WSW,241,18.0,23.0,29,0.00,,,-99.99,Weather View 32 v60,2013-01-19 10:00:00,
2013-01-19 07:00:00,36.9,11.1,27.44,West,274,9.0,25.0,34,0.00,,,-99.99,Weather View 32 v60,2013-01-19 12:00:00,
2013-01-19 07:20:00,38.2,11.6,27.44,WSW,246,16.0,25.0,33,0.00,,,-99.99,Weather View 32 v60,2013-01-19 12:20:00,
2013-01-19 07:40:00,39.2,12.5,27.44,WSW,242,14.0,28.0,33,0.00,,,-99.99,Weather View 32 v60,2013-01-19 12:40:00,
2013-01-19 08:00:00,39.8,11.6,27.45,WSW,254,7.0,28.0,31,0.00,,,-99.99,Weather View 32 v60,2013-01-19 13:00:00,
2013-01-19 08:20:00,40.0,13.2,27.45,WSW,240,16.0,28.0,33,0.00,,,-99.99,Weather View 32 v60,2013-01-19 13:20:00,
2013-01-19 08:40:00,40.8,13.9,27.45,WSW,253,8.0,28.0,33,0.00,,,-99.99,Weather View 32 v60,2013-01-19 13:40:00,
2013-01-19 09:00:00,40.7,13.1,27.45,SW,236,15.0,32.0,32,0.00,,,-99.99,Weather View 32 v60,2013-01-19 14:00:00,
2013-01-19 09:40:00,42.5,13.2,27.44,WSW,255,14.0,32.0,30,0.00,,,-99.99,Weather View 32 v60,2013-01-19 14:40:00,
2013-01-19 10:00:00,43.5,11.7,27.43,WSW,252,11.0,27.0,27,0.00,,,-99.99,Weather View 32 v60,2013-01-19 15:00:00,
2013-01-19 10:40:00,44.9,11.2,27.41,WSW,253,10.0,29.0,25,0.00,,,-99.99,Weather View 32 v60,2013-01-19 15:40:00,
2013-01-19 11:00:00,45.5,13.4,27.39,SW,234,8.0,29.0,27,0.00,,,-99.99,Weather View 32 v60,2013-01-19 16:00:00,
2013-01-19 11:40:00,47.4,15.0,27.36,WNW,292,13.0,28.0,27,0.00,,,-99.99,Weather View 32 v60,2013-01-19 16:40:00,
2013-01-19 12:00:00,47.8,14.5,27.35,West,279,10.0,28.0,26,0.00,,,-99.99,Weather View 32 v60,2013-01-19 17:00:00,
2013-01-19 12:40:00,50.8,16.2,27.33,SSW,206,10.0,25.0,25,0.00,,,-99.99,Weather View 32 v60,2013-01-19 17:40:00,
2013-01-19 13:00:00,51.1,14.5,27.32,WSW,249,7.0,25.0,23,0.00,,,-99.99,Weather View 32 v60,2013-01-19 18:00:00,
2013-01-19 13:40:00,52.9,16.0,27.30,WSW,248,11.0,25.0,23,0.00,,,-99.99,Weather View 32 v60,2013-01-19 18:40:00,
2013-01-19 14:40:00,51.9,13.1,27.28,West,272,6.0,25.0,21,0.00,,,-99.99,Weather View 32 v60,2013-01-19 19:40:00,
2013-01-19 15:00:00,51.1,12.5,27.27,WSW,239,10.0,24.0,21,0.00,,,-99.99,Weather View 32 v60,2013-01-19 20:00:00,
2013-01-19 15:40:00,50.2,11.7,27.25,WSW,239,8.0,24.0,21,0.00,,,-99.99,Weather View 32 v60,2013-01-19 20:40:00,
2013-01-19 16:20:00,45.2,11.4,27.25,WSW,245,6.0,21.0,25,0.00,,,-99.99,Weather View 32 v60,2013-01-19 21:20:00,
2013-01-19 16:40:00,43.9,12.0,27.24,WSW,237,7.0,19.0,27,0.00,,,-99.99,Weather View 32 v60,2013-01-19 21:40:00,
2013-01-19 17:40:00,41.8,11.8,27.23,WSW,241,5.0,12.0,29,0.00,,,-99.99,Weather View 32 v60,2013-01-19 22:40:00,
2013-01-19 18:00:00,41.6,12.4,27.23,SW,218,6.0,12.0,30,0.00,,,-99.99,Weather View 32 v60,2013-01-19 23:00:00,
2013-01-19 18:40:00,41.3,12.2,27.22,SW,221,4.0,13.0,30,0.00,,,-99.99,Weather View 32 v60,2013-01-19 23:40:00,
2013-01-19 19:00:00,42.5,10.8,27.22,SW,232,11.0,21.0,27,0.00,,,-99.99,Weather View 32 v60,2013-01-20 00:00:00,
2013-01-19 19:40:00,42.7,11.8,27.20,SW,227,8.0,21.0,28,0.00,,,-99.99,Weather View 32 v60,2013-01-20 00:40:00,
2013-01-19 20:00:00,42.1,11.3,27.19,SW,233,6.0,19.0,28,0.00,,,-99.99,Weather View 32 v60,2013-01-20 01:00:00,
2013-01-19 20:40:00,43.0,11.3,27.17,West,267,14.0,21.0,27,0.00,,,-99.99,Weather View 32 v60,2013-01-20 01:40:00,
2013-01-19 21:00:00,43.3,11.5,27.16,WSW,256,13.0,29.0,27,0.00,,,-99.99,Weather View 32 v60,2013-01-20 02:00:00,
2013-01-19 21:40:00,43.3,11.5,27.14,WSW,241,7.0,29.0,27,0.00,,,-99.99,Weather View 32 v60,2013-01-20 02:40:00,
2013-01-19 22:00:00,43.0,11.3,27.13,WSW,250,11.0,26.0,27,0.00,,,-99.99,Weather View 32 v60,2013-01-20 03:00:00,
2013-01-19 22:40:00,42.4,12.4,27.13,West,277,15.0,30.0,29,0.00,,,-99.99,Weather View 32 v60,2013-01-20 03:40:00,
2013-01-19 23:00:00,41.9,12.7,27.13,WSW,255,9.0,30.0,30,0.00,,,-99.99,Weather View 32 v60,2013-01-20 04:00:00,
2013-01-19 23:40:00,41.7,14.7,27.13,WSW,253,13.0,35.0,33,0.00,,,-99.99,Weather View 32 v60,2013-01-20 04:40:00,